Tracking 27126 objects as of 31-Mar-2023
HD Live streaming from Space Station
objects crossing your sky now

SL-16 R/B

Track SL-16 R/B now!
10-day predictions
SL-16 R/B is classified as:


NORAD ID: 25861
Int'l Code: 1999-039B
Perigee: 627.4 km
Apogee: 650.5 km
Inclination: 98.1 °
Period: 97.3 minutes
Semi major axis: 7009 km
RCS: 13.5291 m2 (large)
Launch date: July 17, 1999
Source: Commonwealth of Independent States (former USSR) (CIS)
Launch site: TYURATAM MISSILE AND SPACE COMPLEX (TTMTR)

Note: This is a ROCKET BODY
Your satellite tracking list
Your tracking list is empty




NASA's NSSDC Master Catalog

Two Line Element Set (TLE):
1 25861U 99039B   23089.11858261  .00001298  00000-0  18179-3 0  9995
2 25861  98.1484 125.4252 0016520 130.9835 229.2808 14.79210001277857
Source of the keplerian elements: AFSPC